Regional Weather Roundup
Issued by NWS Charleston, SC

Current Version | Previous Version | Graphics & Text | Print | Product List | Glossary On
Versions: 1 2 3 4 5 6 7 8 9 10 11 12 13 14 15 16 17 18 19 20 21 22 23 24 25 26 27 28 29 30 31 32 33 34 35 36 37 38 39 40 41 42 43 44 45 46 47 48 49 50
000
ASUS42 KCHS 051412
RWRCHS

REGIONAL WEATHER ROUNDUP
NATIONAL WEATHER SERVICE CHARLESTON SC
1000 AM EDT TUE MAY 05 2015

NOTE: "FAIR" INDICATES FEW OR NO CLOUDS BELOW 12,000 FEET WITH NO
SIGNIFICANT WEATHER AND/OR OBSTRUCTIONS TO VISIBILITY.

NOT ALL STATIONS ARE QUALITY CONTROLLED BY THE NATIONAL
WEATHER SERVICE. USE DATA WITH CAUTION...ESPECIALLY
DEWPOINT OBSERVATIONS.

SCZ027-030-031-034>040-042>050-051500-
...SOUTHEAST SOUTH CAROLINA...

CITY           SKY/WX    TMP DP  RH WIND       PRES   REMARKS
N CHARLESTON   MOSUNNY   75  57  53 E7        30.33S
WATERFRONT PRK   N/A     72 N/A N/A NE12G17     N/A
MOUNT PLEASANT FAIR      73  61  64 MISG      30.33S
PINOPOLIS      NOT AVBL
MONCKS CORNER  FAIR      75  55  50 E9        30.34S
SUMMERVILLE    FAIR      73  59  60 NE6       30.34S
BEAUFORT MCAS  MOSUNNY   74  59  59 NE8       30.32S
BEAUFORT ARPT  FAIR      72  63  73 NE10      30.32R
HILTON HEAD IS MOSUNNY   73  63  68 NE9       30.33R
WALTERBORO     SUNNY     72  55  56 NE7       30.34S
ALLENDALE      FAIR      72  57  60 VRB5      30.33S

...SOUTHERN MIDLANDS AND PEE DEE...

CITY           SKY/WX    TMP DP  RH WIND       PRES   REMARKS
GEORGETOWN     NOT AVBL
KINGSTREE      NOT AVBL
ORANGEBURG     SUNNY     72  55  55 E7        30.35S
BARNWELL       FAIR      73  57  56 E6        30.35S
AIKEN          FAIR      70  52  52 E6        30.39S
MANNING        FAIR      70  46  43 E5        30.35S
COLUMBIA       SUNNY     71  55  56 VRB5      30.35S
SUMTER         NOT AVBL
FLORENCE       SUNNY     74  54  49 CALM      30.36S
MYRTLE BEACH   SUNNY     73  57  56 SE12      30.37
N MYRTLE BEACH SUNNY     73  55  53 E9        30.35S

$$

GAZ063-065-086>088-099>101-113>116-118-119-134>141-150-051500-
...SOUTHEAST GEORGIA...

CITY           SKY/WX    TMP DP  RH WIND       PRES   REMARKS
SAVANNAH ARPT  MOSUNNY   74  59  59 NE13      30.31R
HUNTER AAF     NOT AVBL
FORT STEWART   NOT AVBL
STATESBORO       N/A     72  60  65 E5        30.33S
SYLVANIA       SUNNY     72  61  67 E8        30.34R
CLAXTON        FAIR      72  61  68 NE9       30.32R

...CSRA...CENTRAL AND FAR SOUTHEAST GEORGIA...

CITY           SKY/WX    TMP DP  RH WIND       PRES   REMARKS
THOMSON        SUNNY     72  61  68 CALM      30.39F
AUGUSTA-BUSH   SUNNY     70  58  65 NE3       30.35S
AUGUSTA-DANIEL SUNNY     71  55  56 E3        30.36S
SWAINSBORO     NOT AVBL
VIDALIA        SUNNY     72  61  68 E10       30.32S
EASTMAN        FAIR      73  62  68 E6        30.33F
HAZLEHURST     FAIR      73  62  68 NE10      30.30S
ALMA           SUNNY     73  59  61 VRB7      30.30R
WAYCROSS       SUNNY     77  64  62 E9G16     30.28S
JESUP          FAIR      77  63  61 E9        30.29S
BAXLEY         FAIR      73  61  64 E8        30.30R
BRUNSWICK      PTSUNNY   75  59  57 NE13      30.28S
SAINT SIMONS   PTSUNNY   74  58  57 NE15      30.27S

$$

SCZ027-028-034-036>038-045-046-048>050-GAZ119-141-051500-
...LAKE AND SUPPLEMENTAL COASTAL OBSERVATIONS...

STATION/POSITION TIME  TEMP    WIND        PRES    WAVE   SWELL
                       AIR SEA DIR/SP/G            HT/PER HT/PER/DIR
                 (UTC) (F)     (DEG/KT/KT) (MB)    (FT/S) (FT/S/D)
UPR LAKE MARION  NOT AVBL
WINYAH BAY       1245   71      70/  6     1026.0
LAKE MURRAY      1300   67      CALM  /  1 1027.4R
ACE BASIN NERRS  NOT AVBL
FORT PULASKI     1300   70 71   20/  9/ 12 1026.5R
SAPELO ISLAND    1300   73      50/ 10     1025.0S

$$

ANZ835-935-AMZ111-154-330-350-352-354-370-450-454-472-051500-
...C-MAN AND BUOY OBSERVATIONS...

STATION/POSITION TIME  TEMP    WIND        PRES    WAVE   SWELL
                       AIR SEA DIR/SP/G            HT/PER HT/PER/DIR
                 (UTC) (F)     (DEG/KT/KT) (MB)    (FT/S) (FT/S/D)
BUOY 41004       1350   72 73   50/ 12/ 14 1026.1R   3/ 7   2/ 7
BUOY 41008       1350   71 70   50/ 14/ 16 1025.2R   4/ 6   2/330/11
FOLLY BEACH CMAN 1400   71      50/ 12/ 14 1027.0R
CAPERS NEARSHORE 1308   71      60/ 12/ 14 1026.7R
FRIPP NEARSHORE  1300   70      40/ 12/ 14 1025.4R


STATION/POSITION TIME  TEMP    WIND        PRES    WAVE   SWELL
                       AIR SEA DIR/SP/G            HT/PER HT/PER/DIR
                 (UTC) (F)     (DEG/KT/KT) (MB)    (FT/S) (FT/S/D)
5E ST. MARYS GA  1321      72                N/A     4/ 6   2/ 70/11
FRYING PAN BUOY  1350   72 71  100/  8/ 10 1028.2S   3/ 6   3/120/ 6
BUOY 41025       1350   73 76  180/  6/  8 1028.8R   3/ 9   3/ 70/ 9
CAPE LOOKOUT NC  1300   69     140/  3/  3 1028.1R
BUOY 41002       1350   69 70  110/ 19/ 21 1027.0S   5/ 9   3/ 60/ 9
BUOY 41010       1320   75 78   70/ 17/ 21 1022.1R
ST AUGUSTINE FL  1400   72 71  100/ 11/ 13 1024.3R


$$



USA.gov is the U.S. government's official web portal to all federal, state and local government web resources and services.